Voltar ao catálogo

FENGYUN 1C DEB

AtivoSSO
NORAD 31929·DEBRIS·🇨🇳 China

Lançado May 10, 1999 de Taiyuan Satellite Launch Center

Loading…

Próximas Passagens (próximas 24 horas)

TLE

EnvelhecendoSource: Space-Track

Época: Sep 9, 2026, 15:41 UTC

1 31929U 99025CME 26252.65347863  .00000590  00000-0  21446-3 0  9992
2 31929  98.8263  32.5721 0072281 337.4941  22.3078 14.35631386745326

Acompanhe FENGYUN 1C DEB em tempo real com AllMySat

Download on the App Store